User: anonymous   Login
Location: Brno
(49.2000°N, 16.6330°E)
Time: 08:34:35
(UTC+02:00)
Language:

BREEZE M DEB (TANK) - Orbit

View from above orbital plane
View from above orbital plane
View from above satellite
View from above satellite

Ground track
Ground track

The orbit data is extracted from the following two-line orbital elements,

1 28359U 04022B   15186.56083486  .00004552  00000-0  51577-3 0  9990
2 28359 049.5462 036.2781 4699378 343.7319 012.7789 06.15533981241228
Epoch (UTC): 05 July 2015 13:27:36
Eccentricity: 0.4699378
inclination: 49.5462°
perigee height: 288 km
apogee height: 12109 km
right ascension of ascending node: 36.2781°
argument of perigee: 343.7319°
revolutions per day: 6.15533981
mean anomaly at epoch: 12.7789°
orbit number at epoch: 24122

The dashed part of the orbit path shows where the satellite is in the earth's shadow,  

DLR